ORBCOMM FM 37

Satellite information

Favourite Embed

Satellite Type and Status

PAYLOADIN ORBIT

Key statistics

Satellite ORBCOMM FM 37 at a glance.

Uptime

6170

Days in orbit

Revolutions

≈ 14.8

Per day

Orbit

LEO

Low Earth Orbit

Inclination

48.4

Latest

Satellite identification and parameters

Extended collection of information and parameters for ORBCOMM FM 37.

Object identification

Identified? True

Debris? False

Object name: ORBCOMM FM 37

International designator: 2008-031E

Object number (NORAD): 33064

Object ID (CCSDS): 33064

Country: ORBITAL TELECOMMUNICATIONS SATELLITE (GLOBALSTAR) (ORB)

Current information (Y/N): Y

RCS size: MEDIUM

Orbital parameters

Period: 97.32 minutes

Inclination: 48.4387 deg

SMA: 7008.565 km

Apoapsis: 634.389 km

Periapsis: 626.472 km

RAAN: 161.2494 deg

Eccentricy: 0.0005648

Argument of periapsis: 221.0065 deg

Mean anomaly: 309.1212 deg

Mean motion: 14.79650265 rev/day

Mean motion (dot): 0.00001409 rev/day2

B* drag term: 0.00021382 1/REarth

Two-line elements (TLE)

Creation date: May 11, 2025, 2:40 a.m.

Reference frame: TEME

Reference center: EARTH

Epoch: May 10, 2025, 7:44 p.m. UTC

TLE line 0: 0 ORBCOMM FM 37

TLE line 1: 1 33064U 08031E 25130.82285431 .00001409 00000-0 21382-3 0 9995

TLE line 2: 2 33064 48.4387 161.2494 0005648 221.0065 309.1212 14.79650265908514

Live tracking on map

Real-time ground track for satellite ORBCOMM FM 37.

In-orbit conjunctions

A list of the most updated potential collisions computed for object ORBCOMM FM 37.

Target Orbit TCA Probability of collision Miss distance Type
NOAA 16 DEB SSO 2024-06-28 23:07:49 0.0001873582 232.0 (m) DEBRIS

Associated space launch

LEO communications satellites

ORBCOMM FM 37 was lifted into orbit during the mission ‘Kosmos-3M | Orbcomm FM 37 to 41 & CDS 3’, on board a Kosmos-3M space rocket.

The launch took place on June 19, 2008, 6:36 a.m. from 107.

For more information about the launch, click the button.

Launch to space Kosmos-3M | Orbcomm FM 37 to 41 & CDS 3
Kosmos-3M | Orbcomm FM 37 to 41 & CDS 3

Agency: N/A

Status: Launch Successful

Launch date: June 19, 2008, 6:36 a.m. UTC

Rocket: Kosmos-3M

Launch pad: 107

Location: Kapustin Yar, Russian Federation

...

Latest news about this satellite

There are no fresh news available about this satellite. Check back as we update our databases every day.


Newsletter sign-up

Weekly statistics, charts and insights to help you stay on top of the space industry.